Location: Cluj-Napoca
(46.7712°N, 23.6236°E)
Time: 00:43:05
(UTC+02:00)

YUBILEINY - Visible Passes

Search period start: 02 December 2021 00:00
Search period end: 12 December 2021 00:00
Orbit: 1478 x 1509 km, 82.5° (Epoch: 01 December)

Date Brightness Start Highest point End Pass type
(mag) Time Alt. Az. Time Alt. Az. Time Alt. Az.
02 Dec ? 01:28:12 10° N 01:28:20 10° N 01:28:20 10° N visible
02 Dec ? 03:24:07 10° N 03:43:45 - S 03:24:12 10° N visible
02 Dec ? 18:28:18 10° WSW 18:34:52 23° WNW 18:41:32 10° N visible
03 Dec ? 02:34:36 10° N 02:34:38 10° N 02:34:38 10° N visible
03 Dec ? 17:36:28 10° SW 17:44:27 38° WNW 17:52:33 10° N visible
04 Dec ? 18:48:26 10° W 18:53:21 16° NW 18:58:19 10° NNW visible
05 Dec ? 17:55:31 10° WSW 18:02:36 27° WNW 18:09:48 10° N visible
06 Dec ? 17:04:04 10° SW 17:12:18 45° WNW 17:20:40 10° N visible
06 Dec ? 19:10:43 10° NW 19:12:05 10° NW 19:13:28 10° NW visible
07 Dec ? 18:15:16 10° W 18:20:59 19° NW 18:26:47 10° NNW visible
08 Dec ? 17:22:52 10° SW 17:30:23 31° WNW 17:38:01 10° N visible
09 Dec ? 18:36:12 10° WNW 18:39:37 12° NW 18:43:04 10° NNW visible
10 Dec ? 17:42:17 10° WSW 17:48:40 22° WNW 17:55:09 10° N visible
